Wind_Speed
19 21 22 23 24 25 25 27 29 31 28 25 25 25 24 24 24 24 24 26 27 26 25 25 25 23 21 19 17 16 16 17 18 18 18 18 18 18 19 19 19 18 17 16 16 15 14 15 16 14 11 8 7 7 8 9 11 11 10 8 8 8 8 8 8 7 7 6 6 5 5 5 4 4
19 20 22 22 23 24 26 27 27 28 26 25 25 26 24 25 25 25 26 28 28 27 26 25 25 24 23 20 16 14 14 16 18 19 18 18 18 18 18 18 19 19 17 17 17 16 15 15 15 13 11 9 8 8 9 10 11 11 10 9 9 9 9 8 8 8 7 7 6 6 6 5 4 4
20 21 22 23 24 24 25 25 25 26 26 26 26 26 25 25 25 25 26 27 27 27 28 26 25 24 23 19 14 13 13 13 16 19 19 19 18 18 18 18 18 18 16 16 17 17 16 15 14 13 11 9 9 9 9 11 12 12 10 9 9 9 9 9 8 8 7 7 7 6 6 5 5 4
21 22 23 24 23 23 23 23 24 26 26 26 27 26 25 25 25 26 27 25 25 27 27 26 25 23 20 17 14 14 14 13 14 17 19 19 19 18 18 18 18 17 16 16 16 16 16 15 14 12 11 10 9 9 10 11 12 11 10 10 10 9 9 9 8 8 8 8 8 7 7 6 5 5
21 21 22 22 23 23 23 23 24 25 26 26 26 25 25 26 27 28 27 25 24 26 26 24 25 22 19 17 15 15 16 14 15 17 19 19 19 18 18 17 17 17 16 16 16 15 15 14 13 12 10 9 9 9 10 11 11 11 11 10 10 9 9 9 9 9 9 9 8 8 7 7 7 7
21 22 22 21 22 23 24 24 24 25 26 26 25 24 25 26 27 28 26 23 24 26 26 25 24 22 20 18 17 17 17 14 15 18 19 19 18 17 17 16 16 16 16 15 15 14 14 13 12 11 9 9 9 9 10 11 11 11 11 10 9 9 9 9 10 10 10 10 9 9 9 9 9 9
20 21 21 21 22 23 23 24 24 25 25 25 25 25 24 24 25 26 26 24 24 26 27 26 25 23 21 19 17 17 15 14 16 18 17 17 18 17 16 15 15 15 14 13 13 12 12 11 11 10 9 9 9 10 10 11 11 11 10 9 9 10 10 10 10 10 11 11 11 11 11 11 12 12
17 18 19 20 21 23 24 24 25 26 25 24 25 24 22 23 24 24 26 25 23 25 28 28 26 25 23 20 18 17 15 15 16 16 16 16 17 17 16 15 14 13 12 12 11 11 10 10 10 9 9 9 10 10 10 11 11 10 9 9 10 10 11 11 11 12 12 12 13 13 13 14 14 15
15 17 18 18 19 21 23 24 25 27 25 24 25 24 21 22 22 22 25 25 22 24 28 29 28 27 25 21 19 18 16 17 18 16 15 15 16 17 16 15 14 13 13 12 11 10 10 9 9 9 9 10 11 11 11 11 11 10 10 10 10 11 11 12 12 13 14 14 14 15 15 16 17 17
15 15 16 16 16 18 20 21 23 25 25 25 26 24 22 21 21 21 24 25 25 25 27 29 29 29 26 22 20 19 18 17 17 17 17 15 15 16 16 16 16 15 14 13 11 10 10 9 9 10 10 11 12 12 12 11 11 11 11 11 11 12 13 13 14 14 15 15 16 17 18 19 19 19
14 14 15 15 15 16 18 18 19 21 23 24 25 24 23 22 21 21 23 25 26 26 26 30 31 30 27 23 20 20 19 17 16 16 18 17 17 17 17 18 18 17 15 14 12 10 10 10 11 12 13 13 13 13 13 12 12 12 12 12 12 13 13 14 15 15 16 17 17 18 19 19 19 19
13 14 14 15 15 16 16 17 17 18 20 22 24 24 24 22 22 22 23 25 26 26 28 32 32 32 30 25 22 22 24 23 20 18 17 17 19 20 19 18 17 17 16 15 13 12 11 12 14 14 14 14 14 14 14 14 13 13 13 13 13 14 15 15 16 16 16 16 16 16 16 16 17 18
13 14 14 14 15 14 15 16 17 17 19 22 23 24 23 23 23 22 23 24 25 25 29 34 34 34 32 28 26 28 27 24 20 17 16 17 19 22 21 19 18 17 16 15 14 13 13 14 15 15 15 16 16 16 16 15 15 15 15 15 15 15 16 16 16 15 14 13 13 14 15 16 17 18
12 13 13 15 15 13 13 14 15 16 18 20 21 22 22 23 24 23 23 25 25 27 31 36 36 35 34 31 29 29 26 22 19 18 18 19 20 23 23 21 21 20 18 16 15 14 14 15 16 17 17 17 17 17 17 17 17 17 16 16 16 16 15 14 14 13 13 13 14 15 16 17 18 18
9 10 12 14 14 12 11 12 13 14 15 17 18 19 20 21 22 23 25 27 27 29 33 37 36 35 34 32 30 28 24 23 21 19 19 21 22 26 26 24 23 23 21 18 16 16 16 16 17 18 18 19 19 19 19 19 18 18 17 17 16 14 14 13 12 13 13 14 15 15 16 17 17 17
5 7 9 11 11 11 10 10 11 13 13 15 16 17 17 17 18 22 25 27 27 28 33 38 37 34 33 32 31 28 25 24 21 20 22 23 22 24 26 24 23 22 22 21 19 18 18 18 19 19 20 20 21 21 21 20 19 18 17 16 14 13 12 11 11 12 12 13 14 14 14 15 16 16
2 3 6 7 8 8 8 8 10 12 14 15 16 15 16 16 17 19 22 25 25 25 29 35 35 32 31 31 31 28 25 23 22 21 24 24 22 22 23 22 21 21 22 23 22 20 20 20 20 21 21 22 22 22 22 21 19 18 16 15 13 11 10 9 9 11 12 14 14 13 12 12 12 13
3 4 5 5 6 6 6 7 9 11 14 16 16 15 15 17 18 19 21 23 23 23 25 29 31 31 30 30 29 27 23 23 23 22 23 25 23 23 23 22 22 23 23 23 23 22 22 22 22 23 23 23 23 22 21 19 17 16 15 14 11 9 7 7 8 10 12 13 13 11 9 8 8 8
3 4 4 5 5 4 5 7 9 11 14 16 15 13 13 16 18 20 20 19 17 19 22 25 28 29 28 29 29 25 22 24 24 21 21 23 24 26 27 27 26 26 25 24 24 24 24 23 24 24 23 23 22 20 19 18 16 15 13 10 8 5 4 6 8 10 12 11 9 7 5 4 4 5
3 3 2 2 3 3 3 5 7 9 11 12 13 13 14 16 18 19 19 14 10 12 16 19 23 25 25 26 27 24 22 25 26 25 24 26 29 30 31 30 29 28 26 25 25 25 25 25 24 22 21 21 21 21 20 18 16 13 10 7 3 2 4 7 9 10 10 8 5 4 3 3 3 3
5 6 5 4 3 5 6 6 6 7 9 9 10 12 13 15 16 16 16 15 13 13 14 15 19 23 22 21 22 22 22 22 23 23 25 27 30 32 32 30 28 26 25 25 25 25 24 25 24 22 21 22 22 22 20 18 15 12 8 5 1 3 6 8 10 10 9 7 4 3 2 1 1 0
13 10 7 4 3 5 7 7 6 6 8 10 11 12 14 15 14 13 13 13 15 16 15 16 19 21 20 20 22 24 24 22 20 20 22 24 26 28 29 28 26 24 25 25 25 24 23 24 24 23 23 23 21 20 19 16 13 10 7 4 2 3 5 8 9 10 9 6 3 1 1 1 2 3
16 12 7 5 6 8 10 10 9 8 8 11 16 17 17 17 16 15 13 11 12 12 12 14 17 17 19 21 21 22 24 25 23 21 20 21 22 23 24 24 24 25 26 27 27 27 26 27 27 27 27 26 23 19 17 15 12 9 6 4 4 4 6 8 9 9 7 4 2 2 2 3 4 4
20 17 15 16 13 11 12 13 13 12 9 10 14 14 14 16 15 14 13 12 11 12 12 13 14 14 16 16 15 18 22 22 19 18 18 18 18 19 22 24 24 25 26 28 29 28 28 29 29 30 30 29 28 24 18 14 12 9 7 7 6 6 6 7 7 6 4 3 3 4 4 5 6 6
25 23 21 22 19 15 14 13 11 11 10 9 9 9 9 12 12 10 9 9 8 9 10 10 11 11 12 11 10 14 17 15 13 13 13 12 12 13 16 18 20 22 24 25 26 26 26 28 30 31 30 27 26 24 20 15 13 10 9 8 7 6 6 6 7 7 7 7 8 9 9 9 9 8
25 23 22 21 17 15 14 12 11 12 11 10 10 10 10 10 8 6 6 5 4 5 6 6 6 6 6 6 6 7 8 8 9 10 9 9 10 11 12 13 15 17 17 18 21 22 22 24 27 31 29 24 22 23 21 18 15 12 9 8 7 7 8 9 10 11 10 10 11 11 11 11 10 10
24 22 20 18 15 13 12 11 11 11 11 12 11 10 9 7 5 4 4 3 3 2 2 2 2 3 3 3 4 3 3 3 3 5 7 7 7 8 10 11 11 11 12 14 17 17 16 19 24 28 28 24 23 24 21 19 16 13 10 9 9 10 10 11 11 10 10 10 10 10 9 10 10 10
22 21 19 17 15 14 13 12 11 11 10 9 7 5 5 5 5 5 6 6 6 6 5 4 3 3 3 2 3 4 5 5 5 5 5 5 4 4 5 6 6 6 8 12 14 13 13 17 22 25 26 23 22 22 21 19 15 12 9 10 12 12 11 10 9 8 8 8 8 8 7 7 8 8
20 18 16 14 14 13 12 11 10 11 12 10 8 6 5 3 2 3 3 4 5 4 4 4 4 4 4 3 3 5 6 6 7 7 7 7 6 6 6 7 7 7 7 6 7 8 8 11 14 17 19 19 19 19 20 18 14 11 10 11 13 12 10 8 7 6 7 7 7 7 5 4 5 6
19 18 16 15 15 14 12 11 11 11 10 8 7 6 5 4 4 4 3 2 2 3 4 6 6 6 6 5 4 4 3 2 2 3 3 3 5 5 5 6 5 4 4 3 2 2 4 6 9 11 15 18 18 16 16 15 14 14 13 11 12 12 10 8 6 5 6 7 7 5 3 2 3 4
20 20 19 19 18 17 16 15 15 14 12 10 9 8 7 6 6 5 4 4 4 4 3 3 3 2 1 1 2 3 5 6 6 7 7 6 6 8 9 9 8 5 2 1 1 2 4 6 8 10 14 19 17 15 14 14 16 18 16 12 11 10 10 9 7 5 5 6 6 5 3 2 2 3
20 20 20 20 20 19 19 19 19 18 17 15 15 14 12 11 9 7 6 4 5 6 7 6 4 2 3 4 6 6 5 4 3 1 0 2 3 2 2 4 5 6 5 5 6 5 5 7 9 11 15 18 19 19 18 17 16 16 15 14 11 10 10 9 7 6 7 7 7 6 4 3 2 2
19 21 22 23 23 22 23 23 22 21 20 19 19 17 16 15 14 12 9 7 8 10 11 11 10 8 8 9 9 9 8 7 6 5 4 4 4 4 4 4 6 7 8 9 10 10 11 12 14 16 18 17 18 18 16 14 14 13 12 11 11 10 10 9 7 7 8 8 7 6 5 3 1 1
19 21 22 23 23 23 23 23 23 22 21 20 19 18 17 17 16 15 13 11 10 9 9 10 11 10 8 8 8 7 6 5 6 4 2 4 5 4 4 5 7 8 8 10 11 12 13 15 16 16 16 15 15 12 7 6 10 12 10 9 9 9 8 8 8 9 9 8 7 6 4 3 2 2
21 22 23 24 24 23 23 23 22 20 19 18 17 16 16 16 15 14 13 12 10 7 6 7 7 7 7 7 6 6 6 6 7 6 3 3 7 7 6 8 11 11 9 10 11 11 12 13 14 16 16 16 16 14 8 5 7 8 7 6 5 6 7 8 8 9 8 6 4 4 4 3 2 1
25 25 25 26 25 24 24 23 22 21 19 18 16 15 14 14 14 13 12 11 9 7 5 4 4 4 4 4 3 3 4 5 5 7 6 0 6 9 9 10 12 12 10 9 10 10 11 12 13 16 17 17 16 14 12 9 6 5 3 2 1 2 5 7 8 8 6 5 3 3 4 3 2 2
27 26 26 25 24 23 23 22 21 21 20 18 17 15 13 12 11 11 10 9 8 7 6 4 3 2 3 3 3 2 1 1 1 3 4 2 4 8 10 11 12 12 12 11 9 9 9 10 12 14 17 18 16 14 12 10 7 4 1 1 2 2 5 7 8 7 6 5 3 2 2 2 1 1
24 24 23 23 22 21 20 20 19 19 18 18 17 16 14 11 9 7 7 7 7 7 6 4 3 4 5 4 3 3 3 3 2 2 1 1 2 5 8 10 10 10 11 12 11 10 10 11 12 14 15 15 14 14 13 11 8 5 1 3 3 3 6 7 7 8 8 7 7 7 7 7 7 7
22 22 21 21 19 18 18 17 17 17 17 16 16 15 13 11 9 7 6 6 7 7 6 5 4 5 6 6 6 5 3 1 1 2 3 4 4 2 4 6 7 8 9 11 13 13 12 11 9 9 8 6 7 10 11 10 8 5 2 4 5 6 8 10 10 11 11 10 9 9 9 9 9 10
19 20 20 19 19 18 17 17 16 16 15 15 14 13 12 11 10 8 6 5 6 7 6 5 4 4 5 5 6 7 5 4 3 1 1 3 3 1 1 3 5 7 9 11 11 11 11 9 7 7 6 5 6 8 8 8 7 5 3 5 7 9 10 10 11 10 10 9 8 8 8 8 8 9
17 18 18 18 18 18 17 17 17 17 16 15 14 12 10 9 8 7 6 5 6 7 7 5 4 5 6 5 5 5 4 4 5 4 4 4 4 3 1 3 6 7 8 8 8 8 8 8 8 9 11 11 12 13 11 9 8 5 4 6 9 9 8 8 7 6 7 7 6 6 6 6 6 7
17 17 17 18 18 18 17 17 17 17 16 15 14 13 11 8 6 5 4 3 4 6 8 7 5 6 7 6 5 3 3 4 5 5 5 5 5 3 0 3 5 6 6 5 4 5 5 7 9 11 13 14 14 14 12 10 8 7 7 7 8 7 6 6 4 4 4 5 4 3 4 4 5 5
17 17 17 17 17 17 17 17 17 16 15 14 14 14 12 9 6 4 3 2 3 4 7 8 7 7 8 8 7 5 4 4 4 4 5 5 4 2 1 1 2 2 3 2 2 3 5 7 9 11 12 12 13 12 11 10 9 8 8 7 7 6 4 4 4 4 4 5 5 3 1 2 3 3
16 16 16 15 15 16 16 16 16 15 14 13 13 13 12 11 9 7 5 3 2 2 4 6 6 6 7 7 6 4 3 3 2 2 2 2 2 2 2 2 2 2 2 2 4 6 7 7 7 7 8 9 10 11 11 11 10 8 6 5 5 5 3 1 3 5 6 6 6 4 2 1 2 3
14 14 14 14 14 14 15 15 15 14 13 13 13 12 11 10 10 9 7 4 2 2 1 2 3 3 3 3 2 1 1 1 1 0 1 1 1 0 2 3 3 3 4 6 7 7 7 7 5 3 5 7 8 9 10 9 8 8 6 3 3 3 1 1 2 6 7 7 5 3 2 2 2 3
Wind_Direction
238 247 253 252 246 240 237 235 231 227 223 220 224 225 224 220 209 200 203 209 211 211 209 208 207 206 206 203 201 207 211 212 215 216 212 209 206 206 207 209 212 212 210 210 211 210 213 214 216 221 224 240 265 260 242 222 202 195 194 194 195 191 192 197 199 205 212 215 220 223 228 235 240 246
231 237 245 248 244 240 239 238 234 229 220 216 222 226 227 229 224 215 209 209 211 207 203 207 210 205 199 199 203 210 211 212 215 216 215 212 208 206 207 210 210 210 211 212 212 213 216 218 218 218 225 240 255 250 235 219 205 199 197 199 201 199 199 203 206 212 218 223 229 233 237 241 245 247
227 229 236 240 240 239 238 234 233 231 221 216 221 224 225 228 229 228 223 215 209 204 202 204 209 205 197 194 203 208 206 208 212 215 216 214 210 206 206 209 211 211 212 213 212 213 215 215 213 216 228 243 247 235 221 211 204 201 201 204 208 208 206 208 212 217 222 229 234 237 241 241 240 237
226 227 231 235 236 235 234 231 230 228 221 219 222 221 221 225 226 227 228 225 212 202 203 206 205 203 200 198 202 205 203 208 212 211 212 211 208 205 204 206 209 210 212 211 208 208 209 208 210 220 236 241 233 222 210 203 202 202 204 208 213 214 212 213 218 221 224 230 233 236 237 234 231 234
227 227 229 232 233 232 232 229 227 227 222 221 222 220 219 223 224 222 223 227 217 201 200 208 204 199 202 203 203 206 207 211 210 202 200 204 205 204 202 203 205 207 208 206 203 202 203 206 214 229 236 229 219 210 202 199 200 204 207 212 217 219 218 219 221 223 225 227 230 232 231 229 230 237
229 229 229 230 229 229 230 229 227 228 225 223 222 220 218 219 222 222 220 222 218 203 198 204 202 197 202 207 208 210 211 214 210 197 191 195 198 199 199 199 200 201 201 201 199 200 203 210 222 230 225 214 208 202 198 199 201 206 211 215 219 221 222 223 224 225 226 225 225 227 229 233 239 245
230 230 229 229 226 225 228 230 233 232 228 227 228 225 221 220 221 222 221 218 214 206 199 199 200 197 202 209 210 207 207 211 208 197 191 191 190 189 190 191 196 199 199 199 199 201 207 215 222 220 212 205 201 198 199 202 204 208 212 214 219 223 225 226 225 225 227 227 226 228 232 239 246 253
230 229 227 226 226 227 227 227 233 236 233 232 234 230 225 223 222 221 220 218 214 209 202 199 201 201 202 206 206 203 199 201 202 196 195 195 190 185 183 187 194 197 198 199 199 202 206 210 210 207 204 202 199 199 201 202 204 207 209 212 219 224 227 230 230 228 229 230 232 235 241 249 257 264
227 226 225 225 228 231 230 230 233 236 233 230 233 234 229 223 220 220 220 217 213 211 205 201 202 205 205 202 202 202 194 191 194 192 193 195 191 185 183 187 191 191 193 193 193 196 196 198 201 200 201 202 200 202 203 203 205 207 209 215 222 227 230 233 235 236 237 239 242 247 253 260 266 272
227 228 229 231 234 237 236 235 235 234 230 227 230 232 230 226 221 219 219 214 208 209 210 207 204 205 205 200 200 203 194 189 191 187 184 187 189 188 186 186 186 185 187 188 188 194 196 197 199 198 201 204 204 206 207 207 209 211 215 222 228 233 237 240 243 246 250 252 256 260 265 269 272 275
231 233 235 236 239 242 239 234 231 231 229 228 229 229 228 228 224 218 216 213 209 210 214 213 208 204 203 198 197 201 198 198 201 195 189 187 187 188 187 186 186 184 183 185 185 190 197 200 201 201 203 205 206 209 211 211 213 217 223 229 234 238 243 247 251 255 259 263 267 270 273 276 278 279
233 235 237 239 240 241 238 230 227 232 234 229 228 228 225 223 222 217 214 215 214 212 215 215 208 202 201 197 196 201 201 203 206 205 203 199 193 189 186 186 190 188 184 184 187 192 199 203 204 205 206 207 208 211 214 216 219 224 229 234 238 242 247 252 257 261 264 267 271 274 278 281 282 281
228 233 238 242 243 241 237 231 228 231 234 232 230 229 224 219 219 216 215 218 215 208 209 211 205 200 200 196 197 203 203 202 203 203 206 208 199 190 185 185 189 190 190 193 197 202 205 205 206 208 209 210 212 216 219 222 225 228 233 237 241 247 254 259 261 263 266 269 274 280 284 285 283 280
232 237 241 242 243 243 238 233 230 227 228 230 233 233 228 220 217 215 214 215 211 204 204 206 202 200 199 198 201 206 205 202 203 205 206 204 195 187 185 185 187 191 198 204 205 205 207 207 208 209 211 214 217 220 223 225 228 232 236 242 249 255 258 260 261 264 268 273 279 284 287 286 282 277
247 243 242 243 243 245 241 233 231 227 224 228 231 234 234 228 222 220 215 211 208 205 203 203 203 201 199 200 204 208 208 204 203 208 208 200 192 190 190 190 191 194 200 206 208 206 206 208 209 210 213 216 218 222 225 227 231 236 242 248 252 255 254 256 263 270 278 284 289 292 292 287 280 274
249 242 239 243 246 249 248 240 235 228 223 226 226 225 224 221 218 220 218 212 209 207 203 201 202 202 201 203 205 207 209 206 203 209 209 199 192 194 196 197 198 199 200 204 208 208 207 208 209 211 215 218 219 222 226 231 235 238 242 245 245 246 249 259 272 283 294 302 302 300 296 287 277 272
230 242 242 250 254 250 242 236 233 223 215 219 222 214 208 206 203 207 214 214 214 214 208 202 202 202 203 207 208 207 210 208 202 205 207 202 198 201 202 203 206 206 203 204 207 211 212 212 212 212 215 218 222 226 229 234 237 238 236 233 233 239 251 267 287 303 313 315 311 306 298 286 276 270
244 242 239 249 256 246 229 221 219 214 210 213 217 211 203 202 200 200 208 213 214 215 211 203 200 201 204 209 209 206 207 207 203 201 203 202 204 207 210 212 213 213 209 206 208 212 214 215 215 216 219 221 224 226 227 227 227 225 222 223 227 239 263 286 308 320 323 321 318 313 301 287 277 269
239 229 225 235 247 247 226 208 203 208 214 215 215 211 201 201 202 201 206 212 212 211 208 203 202 205 206 208 207 203 199 200 202 205 206 207 209 212 216 219 218 215 213 211 213 216 216 216 217 218 220 222 220 216 211 207 206 207 209 216 231 251 288 319 332 335 333 330 326 316 300 285 271 259
181 176 180 205 217 210 186 179 186 203 213 211 207 204 196 193 196 196 198 200 197 198 202 202 205 207 203 197 197 199 199 202 206 211 213 214 216 215 217 218 216 214 214 213 214 218 218 214 214 212 209 209 207 201 196 191 189 193 199 202 218 313 352 356 353 349 345 342 334 315 298 280 261 250
100 89 78 87 137 162 151 148 166 193 206 204 202 199 189 186 189 187 187 188 181 186 199 199 200 203 199 190 188 192 197 202 206 210 212 213 216 217 216 213 210 211 215 215 214 217 216 211 207 203 196 194 194 189 185 184 182 181 183 177 131 26 14 9 3 358 356 352 339 314 299 292 288 310
56 57 57 70 131 145 132 131 147 174 193 187 180 179 176 175 175 165 167 177 176 182 193 191 191 196 194 191 190 188 192 199 202 206 209 208 210 214 212 208 206 211 216 217 213 212 212 209 206 200 187 177 178 181 177 176 177 172 166 155 106 41 16 8 2 359 357 356 351 340 344 60 78 80
46 45 55 100 129 128 118 116 118 123 140 144 138 139 144 145 140 133 136 147 154 160 171 178 187 192 189 193 197 191 194 205 208 207 211 212 213 217 218 219 220 218 216 215 212 211 214 212 208 205 192 173 167 173 174 168 165 160 151 132 91 56 22 6 359 358 358 358 15 43 61 71 72 73
58 60 74 83 75 74 88 94 99 104 107 112 114 117 120 118 116 121 125 127 135 143 147 157 171 178 180 190 198 193 198 210 213 209 214 222 225 229 234 234 230 226 222 217 213 215 216 212 205 205 202 187 171 167 166 163 160 152 132 106 75 49 24 9 7 15 29 52 63 60 60 60 62 62
70 71 81 78 61 54 72 79 83 96 102 104 104 101 98 101 108 118 119 115 122 131 137 148 159 165 174 183 184 187 196 204 205 201 206 215 218 225 237 236 225 223 224 216 211 213 211 205 201 199 198 190 177 169 165 159 155 146 123 98 72 51 39 39 55 78 89 91 83 75 70 67 66 64
76 76 81 79 68 59 63 63 72 84 78 66 68 74 80 92 103 110 109 107 110 113 121 141 153 153 163 176 176 182 192 196 201 206 209 217 218 220 234 239 231 233 230 213 207 211 210 207 205 199 192 184 176 173 169 162 155 144 122 101 85 80 77 75 83 93 96 93 89 81 74 71 68 65
73 75 77 79 78 72 66 70 82 79 54 36 44 57 59 60 59 50 51 51 40 51 73 102 137 133 127 140 150 151 152 167 199 211 209 215 219 218 224 231 234 239 234 212 203 207 216 215 208 202 199 192 180 174 171 167 162 151 130 113 106 103 96 87 85 89 92 94 95 88 80 75 70 64
65 66 67 69 73 74 77 84 90 86 73 63 65 67 51 36 18 359 356 359 1 3 7 12 30 62 77 97 121 120 115 117 121 130 144 148 152 169 190 200 200 197 201 202 196 197 216 219 208 203 204 199 189 182 177 171 163 153 139 128 123 117 110 103 98 97 97 100 102 100 94 85 74 65
64 64 64 63 64 66 70 73 75 81 87 93 101 103 95 81 37 3 346 330 332 350 21 49 63 72 73 81 106 110 112 118 122 121 118 116 118 118 116 116 116 118 132 159 175 184 208 219 214 211 209 205 202 194 179 165 154 147 146 144 139 133 129 129 129 124 123 122 119 119 116 99 77 68
64 64 63 62 61 62 64 63 64 68 74 81 88 89 84 80 77 75 70 44 31 62 90 101 108 110 107 108 111 113 122 159 180 185 199 197 200 211 203 182 164 137 116 107 134 198 222 228 234 233 217 208 204 189 170 159 148 144 151 159 159 155 156 164 167 161 155 153 150 147 140 103 73 66
61 61 60 60 60 59 60 61 62 64 64 64 63 59 52 49 49 45 40 37 40 53 70 88 110 120 136 268 299 301 287 281 276 270 268 255 235 234 234 227 224 230 238 227 218 232 228 226 239 237 212 195 182 163 157 159 153 149 156 171 177 174 178 188 193 188 185 181 175 173 157 115 82 56
65 66 66 65 65 64 64 64 63 62 61 59 58 56 52 49 43 35 24 15 22 30 28 21 9 357 354 6 15 16 10 2 353 332 182 108 109 119 149 168 171 169 164 158 160 166 168 180 196 194 182 171 159 150 152 155 154 158 169 182 191 189 186 193 198 191 190 192 188 183 172 154 127 48
77 76 73 71 69 67 66 65 63 61 60 60 60 60 59 58 56 53 48 46 51 53 49 46 49 57 63 60 52 47 43 35 34 55 101 127 129 123 126 142 151 156 161 160 155 149 147 154 162 162 157 152 150 154 158 158 158 166 176 184 192 190 185 193 203 194 193 204 208 201 191 186 195 324
76 74 72 71 69 67 66 65 63 61 60 59 59 59 60 60 60 58 56 58 59 59 58 58 58 58 57 52 48 46 36 15 12 31 93 173 188 187 171 158 154 152 151 153 155 156 156 158 159 158 154 149 145 147 158 169 165 166 171 179 192 201 198 200 207 202 201 212 222 220 212 214 237 276
67 65 64 62 61 59 58 58 57 56 56 55 55 55 56 57 58 57 57 60 61 61 61 61 57 49 39 33 40 46 35 12 358 353 353 171 183 199 195 164 154 152 147 143 147 156 163 167 169 164 158 151 143 134 127 135 150 159 174 182 194 217 213 199 198 202 202 203 216 227 221 207 216 261
63 61 60 59 57 55 53 52 51 51 51 49 48 47 48 51 53 52 51 52 52 55 60 60 53 45 24 9 21 47 39 25 6 346 341 33 173 185 184 168 160 163 164 158 153 158 165 170 175 173 167 163 156 143 134 133 132 137 167 184 155 206 199 187 186 192 197 200 213 235 232 221 237 279
61 58 56 54 51 49 48 46 45 46 47 45 41 39 37 39 43 44 43 44 45 49 54 53 44 30 8 344 319 300 298 334 3 346 349 11 165 175 179 181 179 178 181 179 171 172 178 179 186 190 182 175 172 163 153 151 153 152 154 16 39 145 180 187 188 184 184 191 189 169 165 164 128 52
61 58 55 51 47 43 40 37 35 36 38 38 37 36 33 31 34 33 30 31 35 38 36 34 38 43 34 17 346 303 269 241 240 261 287 290 205 176 180 194 200 198 200 195 186 188 196 199 207 208 193 180 182 187 182 175 173 176 159 33 56 126 161 175 176 157 139 128 117 108 103 93 83 81
57 56 54 51 47 41 38 34 31 28 27 27 29 31 30 28 28 30 30 24 22 22 17 14 32 49 44 43 47 41 23 332 271 243 243 264 266 214 176 193 206 209 207 199 195 200 207 208 218 223 212 201 212 213 204 193 181 173 120 59 82 113 132 140 138 126 114 107 103 101 95 85 77 75
56 55 54 52 48 45 41 38 34 31 27 24 22 23 23 22 21 29 42 39 25 18 9 360 10 28 25 29 47 51 38 19 11 352 284 299 306 285 169 161 175 189 193 187 186 195 202 199 201 208 215 223 219 208 201 191 172 148 95 93 116 126 128 127 122 112 106 105 105 104 99 91 83 79
54 52 51 49 46 45 43 40 39 38 35 31 26 21 16 12 12 20 36 40 31 24 18 12 17 32 33 35 46 47 31 6 350 328 305 315 336 332 252 162 161 177 192 188 179 181 191 194 190 190 196 201 200 196 194 185 166 138 113 128 140 142 140 133 123 115 117 120 122 118 110 103 94 83
50 48 47 45 42 39 38 37 38 38 36 34 31 26 18 9 6 9 21 34 36 35 36 39 48 59 63 68 75 67 35 14 6 351 333 329 338 350 319 186 182 188 198 196 174 171 187 192 185 186 193 200 201 202 199 187 167 139 122 130 140 145 150 152 150 149 153 156 156 142 118 110 105 87
45 43 42 40 38 35 32 31 32 33 32 30 30 32 30 24 15 6 2 17 42 52 54 60 74 92 97 96 96 92 76 61 55 49 40 30 30 51 86 171 205 199 211 233 215 184 188 186 180 182 189 193 197 201 196 181 163 138 121 123 130 132 138 164 183 188 189 188 187 187 147 73 72 71
38 36 35 33 32 30 27 26 26 27 26 25 27 32 35 33 27 19 11 5 11 42 65 73 84 102 110 107 102 98 86 71 58 54 63 69 68 72 88 110 129 129 135 161 170 170 174 173 169 172 180 182 185 190 188 180 169 156 142 135 137 129 110 138 192 196 203 203 195 188 200 291 15 29
30 28 26 24 24 24 22 21 21 22 22 22 24 28 33 34 31 25 20 15 357 338 14 70 84 97 109 106 94 79 70 67 62 326 265 249 242 172 133 150 160 155 151 157 160 163 168 170 167 178 190 183 177 180 185 185 181 177 178 187 181 160 84 347 215 199 204 207 199 181 182 218 276 321
Height
1495 1497 1498 1499 1500 1502 1503 1503 1504 1505 1506 1509 1512 1513 1514 1515 1516 1518 1520 1521 1523 1525 1527 1529 1530 1532 1534 1536 1537 1539 1539 1540 1541 1542 1543 1544 1545 1546 1548 1549 1550 1551 1552 1553 1554 1556 1557 1558 1559 1560 1561 1562 1563 1564 1564 1565 1565 1566 1567 1567 1567 1568 1568 1568 1569 1569 1570 1570 1570 1571 1571 1571 1571 1571
1491 1494 1495 1496 1498 1499 1501 1501 1502 1503 1505 1508 1510 1511 1513 1514 1514 1515 1517 1518 1520 1523 1525 1527 1528 1530 1533 1535 1536 1537 1538 1539 1540 1541 1542 1543 1544 1545 1547 1548 1549 1551 1552 1553 1554 1555 1556 1557 1558 1559 1560 1561 1562 1563 1563 1564 1565 1566 1566 1567 1567 1567 1568 1568 1569 1569 1570 1570 1570 1571 1571 1571 1571 1571
1489 1490 1492 1494 1495 1497 1499 1500 1500 1501 1503 1506 1508 1510 1511 1512 1513 1514 1515 1516 1518 1520 1522 1524 1526 1529 1531 1533 1534 1536 1536 1537 1538 1540 1541 1542 1543 1544 1545 1547 1548 1550 1551 1552 1553 1554 1555 1556 1557 1559 1559 1560 1561 1561 1562 1563 1565 1565 1566 1567 1567 1567 1567 1568 1568 1569 1569 1570 1570 1570 1571 1571 1571 1571
1487 1488 1490 1491 1493 1495 1497 1499 1500 1501 1503 1505 1506 1508 1510 1511 1512 1513 1514 1515 1517 1519 1521 1523 1525 1528 1530 1531 1533 1534 1535 1536 1537 1538 1540 1541 1542 1543 1544 1546 1547 1549 1550 1551 1552 1553 1554 1555 1557 1558 1559 1559 1560 1560 1561 1562 1564 1565 1566 1566 1566 1567 1567 1568 1568 1568 1569 1569 1569 1570 1570 1570 1571 1571
1485 1486 1487 1489 1492 1494 1496 1498 1499 1501 1503 1504 1505 1507 1509 1510 1511 1511 1512 1515 1516 1518 1520 1522 1524 1527 1529 1530 1531 1532 1533 1534 1536 1537 1538 1540 1541 1542 1543 1545 1546 1548 1549 1550 1551 1552 1553 1555 1556 1557 1558 1558 1559 1559 1560 1561 1563 1564 1565 1566 1566 1567 1567 1567 1568 1568 1568 1569 1569 1569 1570 1570 1570 1570
1483 1485 1486 1488 1490 1492 1495 1497 1499 1500 1501 1503 1504 1506 1507 1508 1509 1510 1511 1513 1515 1517 1519 1521 1523 1525 1527 1528 1530 1531 1532 1534 1535 1536 1537 1538 1540 1541 1543 1544 1546 1547 1548 1549 1550 1552 1553 1554 1555 1556 1557 1557 1558 1559 1560 1561 1562 1563 1564 1565 1566 1567 1567 1567 1567 1568 1568 1568 1568 1569 1569 1569 1569 1570
1483 1484 1485 1487 1489 1491 1493 1495 1497 1499 1500 1501 1502 1503 1505 1506 1508 1509 1510 1512 1514 1516 1518 1519 1521 1523 1525 1527 1529 1530 1531 1533 1534 1535 1536 1538 1539 1540 1542 1544 1545 1547 1548 1549 1550 1551 1552 1553 1554 1555 1556 1556 1557 1558 1559 1560 1561 1562 1563 1564 1565 1566 1566 1567 1567 1567 1567 1568 1568 1568 1568 1568 1569 1569
1483 1483 1484 1486 1488 1490 1492 1494 1496 1498 1499 1500 1500 1501 1503 1504 1506 1507 1509 1511 1514 1515 1516 1518 1519 1521 1523 1526 1528 1529 1530 1532 1533 1535 1536 1537 1538 1539 1541 1543 1545 1546 1548 1548 1549 1550 1551 1552 1553 1554 1555 1556 1557 1558 1558 1559 1560 1561 1562 1563 1564 1565 1565 1566 1566 1566 1567 1567 1567 1567 1568 1568 1568 1568
1481 1482 1483 1485 1487 1489 1490 1492 1494 1496 1498 1499 1499 1500 1502 1503 1504 1506 1508 1510 1513 1515 1515 1516 1518 1520 1522 1525 1527 1528 1529 1531 1532 1534 1535 1536 1537 1538 1540 1542 1544 1545 1547 1548 1548 1549 1550 1551 1553 1554 1555 1555 1556 1557 1557 1558 1559 1560 1561 1562 1563 1564 1564 1565 1565 1565 1566 1566 1566 1567 1567 1567 1567 1567
1480 1481 1482 1484 1486 1488 1489 1491 1493 1494 1496 1498 1498 1499 1500 1501 1503 1504 1505 1508 1511 1513 1514 1515 1517 1519 1521 1523 1525 1526 1528 1530 1531 1532 1533 1535 1536 1537 1539 1540 1542 1544 1545 1547 1548 1549 1549 1550 1552 1553 1554 1555 1555 1556 1557 1558 1558 1559 1560 1561 1562 1562 1563 1564 1564 1565 1565 1565 1565 1565 1565 1565 1565 1565
1480 1481 1482 1483 1485 1486 1488 1490 1491 1492 1493 1495 1496 1497 1499 1500 1501 1502 1503 1505 1508 1509 1511 1514 1515 1517 1520 1522 1524 1526 1527 1529 1530 1531 1531 1533 1534 1536 1538 1539 1541 1543 1544 1546 1546 1547 1548 1549 1550 1551 1552 1553 1554 1555 1556 1557 1558 1558 1559 1560 1560 1561 1562 1563 1563 1563 1563 1563 1563 1563 1563 1562 1562 1562
1480 1481 1481 1482 1483 1484 1486 1487 1489 1490 1491 1493 1494 1495 1497 1498 1499 1501 1502 1503 1505 1506 1509 1511 1513 1515 1517 1520 1523 1524 1525 1526 1528 1529 1530 1531 1532 1534 1536 1539 1541 1542 1543 1544 1545 1546 1547 1548 1549 1550 1551 1552 1553 1554 1555 1556 1557 1557 1558 1558 1559 1560 1560 1561 1561 1561 1561 1561 1561 1561 1560 1560 1559 1559
1479 1480 1481 1481 1482 1483 1485 1486 1488 1488 1489 1490 1491 1492 1494 1496 1497 1498 1500 1501 1503 1504 1506 1509 1511 1513 1515 1518 1520 1521 1522 1524 1526 1528 1529 1531 1532 1534 1536 1538 1540 1541 1542 1543 1544 1545 1546 1546 1547 1548 1550 1551 1552 1553 1554 1555 1555 1556 1556 1557 1557 1558 1558 1559 1559 1559 1559 1559 1559 1559 1558 1557 1557 1556
1479 1480 1480 1480 1480 1482 1484 1486 1487 1487 1488 1489 1491 1492 1492 1493 1493 1495 1497 1498 1500 1502 1503 1506 1509 1510 1512 1514 1516 1517 1520 1523 1525 1526 1528 1529 1531 1533 1534 1536 1538 1539 1541 1542 1543 1544 1544 1545 1546 1547 1548 1550 1551 1552 1553 1554 1554 1555 1555 1555 1556 1556 1557 1557 1557 1557 1557 1557 1557 1556 1555 1554 1554 1553
1479 1479 1479 1479 1480 1482 1484 1485 1486 1487 1487 1488 1490 1492 1493 1493 1493 1493 1494 1496 1497 1499 1501 1503 1505 1507 1509 1512 1513 1516 1519 1522 1523 1525 1526 1528 1530 1530 1532 1534 1535 1537 1538 1540 1541 1542 1543 1544 1545 1546 1547 1548 1549 1550 1551 1552 1553 1553 1554 1554 1554 1555 1555 1555 1555 1555 1555 1555 1554 1553 1552 1551 1550 1550
1479 1480 1479 1479 1481 1482 1483 1484 1485 1486 1487 1487 1489 1491 1492 1493 1493 1492 1493 1495 1497 1497 1498 1500 1502 1505 1508 1510 1512 1515 1518 1520 1522 1524 1525 1527 1528 1529 1531 1532 1534 1535 1536 1538 1539 1540 1541 1541 1542 1544 1545 1546 1548 1549 1550 1550 1551 1551 1552 1552 1552 1553 1553 1553 1553 1553 1553 1552 1551 1550 1549 1548 1547 1547
1480 1480 1480 1480 1481 1482 1483 1483 1484 1485 1486 1486 1488 1490 1491 1491 1492 1492 1494 1495 1497 1496 1497 1499 1501 1504 1507 1509 1512 1514 1516 1519 1521 1522 1524 1526 1527 1529 1530 1532 1533 1534 1535 1536 1537 1538 1539 1539 1540 1542 1543 1544 1545 1547 1548 1549 1549 1550 1550 1550 1551 1551 1551 1551 1551 1551 1550 1549 1548 1547 1546 1546 1545 1545
1481 1481 1481 1481 1481 1482 1483 1483 1483 1485 1485 1486 1487 1489 1489 1490 1490 1492 1493 1494 1496 1497 1497 1500 1502 1504 1506 1509 1511 1514 1515 1517 1519 1520 1522 1524 1526 1527 1529 1530 1532 1533 1533 1534 1535 1536 1537 1538 1539 1540 1541 1542 1543 1544 1545 1547 1548 1548 1549 1549 1549 1550 1550 1549 1549 1548 1548 1547 1546 1545 1545 1544 1544 1544
1482 1481 1481 1481 1482 1482 1483 1483 1483 1484 1485 1486 1487 1487 1488 1489 1490 1492 1493 1494 1495 1496 1498 1500 1502 1503 1505 1508 1511 1513 1514 1516 1518 1520 1521 1523 1524 1525 1527 1528 1529 1530 1531 1533 1533 1534 1534 1535 1536 1537 1538 1539 1541 1542 1543 1545 1546 1546 1547 1547 1547 1548 1548 1547 1547 1546 1546 1546 1545 1544 1544 1544 1543 1543
1482 1483 1482 1482 1482 1482 1483 1483 1484 1484 1485 1485 1487 1487 1488 1489 1491 1492 1493 1494 1495 1496 1498 1501 1503 1504 1505 1507 1510 1512 1514 1516 1517 1519 1520 1521 1522 1523 1524 1525 1527 1528 1529 1530 1531 1531 1531 1532 1533 1534 1536 1537 1539 1540 1541 1542 1543 1544 1544 1545 1546 1546 1546 1545 1545 1545 1545 1544 1544 1544 1544 1543 1543 1542
1484 1484 1483 1483 1483 1484 1484 1484 1485 1486 1486 1486 1487 1488 1488 1489 1491 1492 1492 1493 1495 1497 1498 1501 1504 1506 1507 1508 1510 1512 1513 1515 1516 1517 1518 1519 1519 1520 1521 1523 1524 1526 1527 1528 1529 1529 1529 1530 1531 1532 1534 1536 1537 1538 1539 1540 1541 1542 1542 1543 1544 1545 1545 1544 1544 1544 1544 1544 1544 1544 1543 1543 1542 1542
1486 1486 1486 1486 1486 1486 1486 1486 1487 1488 1488 1488 1488 1488 1489 1490 1492 1493 1494 1494 1495 1497 1498 1501 1504 1505 1506 1508 1509 1510 1512 1513 1515 1516 1516 1517 1517 1518 1520 1521 1523 1524 1525 1525 1526 1527 1528 1528 1529 1530 1532 1535 1536 1537 1538 1539 1540 1540 1541 1542 1543 1543 1544 1543 1543 1543 1543 1543 1543 1543 1543 1542 1542 1542
1489 1489 1489 1488 1489 1489 1489 1489 1490 1491 1491 1490 1490 1491 1492 1493 1494 1495 1497 1497 1497 1499 1501 1502 1504 1505 1505 1506 1508 1509 1511 1512 1513 1515 1515 1515 1516 1518 1519 1520 1520 1521 1521 1522 1524 1525 1525 1525 1526 1526 1528 1531 1534 1536 1537 1538 1539 1540 1540 1541 1542 1542 1542 1543 1543 1542 1542 1542 1542 1542 1542 1542 1542 1542
1492 1492 1492 1492 1493 1493 1493 1493 1494 1495 1495 1495 1494 1494 1495 1495 1496 1498 1498 1499 1499 1500 1502 1503 1504 1505 1505 1506 1507 1508 1510 1511 1512 1514 1514 1514 1516 1517 1517 1517 1517 1517 1517 1518 1520 1521 1522 1522 1524 1524 1524 1525 1528 1532 1535 1537 1538 1539 1540 1541 1541 1542 1542 1542 1542 1542 1542 1542 1542 1542 1542 1542 1542 1542
1496 1496 1496 1497 1498 1498 1497 1497 1498 1498 1498 1498 1498 1498 1497 1498 1499 1500 1500 1500 1501 1502 1502 1504 1504 1505 1505 1506 1507 1508 1509 1510 1511 1512 1513 1513 1514 1515 1516 1515 1515 1515 1515 1516 1517 1518 1519 1520 1521 1522 1524 1525 1526 1529 1533 1535 1537 1538 1539 1540 1541 1541 1542 1542 1542 1542 1542 1542 1542 1542 1542 1542 1541 1542
1499 1500 1500 1500 1501 1502 1501 1501 1501 1502 1502 1502 1501 1501 1501 1502 1502 1503 1502 1503 1503 1503 1504 1504 1505 1505 1506 1506 1507 1508 1509 1510 1510 1511 1511 1512 1513 1514 1514 1515 1516 1515 1515 1516 1517 1517 1518 1519 1519 1520 1522 1525 1527 1528 1531 1533 1535 1537 1538 1540 1541 1541 1541 1541 1542 1542 1542 1542 1542 1542 1542 1542 1542 1542
1503 1503 1504 1504 1504 1504 1504 1504 1504 1504 1504 1504 1504 1505 1505 1505 1505 1506 1505 1505 1505 1505 1506 1506 1507 1507 1507 1507 1508 1509 1509 1510 1510 1510 1511 1511 1512 1513 1514 1514 1515 1515 1516 1516 1517 1518 1518 1519 1519 1520 1521 1522 1524 1527 1529 1531 1534 1536 1537 1539 1540 1541 1541 1542 1542 1542 1542 1543 1543 1542 1542 1542 1542 1542
1506 1506 1507 1507 1507 1507 1506 1506 1506 1505 1505 1506 1506 1507 1507 1507 1507 1507 1507 1507 1507 1507 1508 1508 1509 1509 1509 1509 1509 1509 1510 1511 1511 1511 1511 1512 1512 1513 1513 1514 1515 1515 1516 1516 1517 1518 1519 1520 1520 1521 1522 1522 1522 1525 1527 1530 1533 1535 1536 1538 1539 1540 1541 1541 1542 1543 1543 1543 1543 1543 1542 1542 1542 1542
1509 1509 1509 1509 1509 1509 1509 1509 1508 1508 1507 1508 1508 1508 1508 1508 1508 1508 1509 1509 1509 1509 1509 1510 1510 1511 1511 1511 1511 1512 1512 1512 1512 1513 1513 1513 1513 1513 1514 1514 1515 1516 1516 1517 1518 1519 1520 1521 1521 1522 1523 1524 1524 1525 1527 1530 1532 1534 1536 1537 1538 1539 1540 1541 1542 1542 1543 1543 1543 1543 1542 1542 1542 1542
1511 1511 1511 1511 1510 1510 1510 1510 1509 1509 1510 1510 1510 1510 1510 1510 1510 1510 1510 1510 1510 1510 1511 1511 1511 1512 1512 1513 1513 1514 1514 1514 1514 1514 1514 1514 1514 1515 1515 1515 1515 1516 1516 1517 1518 1520 1521 1522 1523 1523 1524 1525 1526 1527 1528 1530 1532 1534 1536 1537 1538 1539 1540 1540 1541 1542 1542 1542 1542 1542 1542 1542 1542 1542
1514 1513 1513 1512 1512 1512 1511 1511 1511 1511 1512 1512 1512 1512 1512 1512 1512 1512 1512 1512 1512 1512 1513 1513 1514 1514 1514 1515 1515 1515 1515 1514 1514 1514 1515 1515 1515 1516 1516 1516 1516 1517 1517 1518 1519 1520 1521 1522 1523 1523 1524 1525 1527 1529 1530 1531 1532 1534 1536 1537 1538 1538 1539 1539 1540 1541 1541 1542 1542 1542 1542 1542 1542 1542
1517 1517 1516 1515 1515 1514 1514 1514 1513 1514 1514 1513 1513 1514 1514 1514 1514 1514 1514 1514 1514 1514 1515 1515 1515 1515 1515 1515 1515 1515 1515 1515 1515 1515 1515 1516 1516 1517 1517 1518 1518 1518 1519 1520 1521 1521 1522 1523 1524 1524 1525 1526 1527 1529 1531 1532 1534 1535 1536 1537 1537 1538 1538 1539 1540 1540 1541 1541 1541 1541 1541 1542 1541 1541
1521 1520 1519 1518 1518 1518 1517 1517 1517 1517 1516 1516 1516 1516 1516 1516 1516 1516 1515 1515 1515 1516 1516 1516 1516 1516 1516 1516 1516 1516 1516 1516 1516 1516 1517 1517 1518 1519 1519 1519 1520 1520 1520 1521 1522 1523 1524 1524 1525 1526 1527 1528 1529 1530 1531 1533 1534 1536 1536 1537 1537 1538 1538 1539 1539 1540 1540 1540 1540 1540 1541 1541 1541 1541
1523 1522 1522 1521 1521 1521 1521 1520 1520 1520 1520 1520 1519 1519 1519 1518 1518 1518 1517 1517 1517 1518 1518 1518 1518 1518 1518 1518 1518 1518 1518 1518 1518 1518 1519 1519 1520 1521 1521 1521 1521 1521 1521 1522 1523 1524 1525 1526 1527 1528 1529 1530 1531 1532 1533 1534 1534 1536 1537 1537 1538 1538 1538 1539 1539 1539 1539 1539 1539 1539 1540 1540 1540 1541
1525 1525 1524 1524 1524 1524 1524 1523 1523 1523 1523 1523 1522 1522 1522 1521 1521 1520 1520 1520 1520 1520 1519 1519 1520 1520 1520 1519 1519 1520 1520 1520 1519 1519 1520 1520 1520 1521 1522 1523 1523 1523 1523 1524 1524 1525 1526 1527 1527 1528 1529 1530 1531 1533 1534 1535 1535 1536 1537 1537 1538 1538 1538 1538 1538 1538 1538 1538 1539 1539 1539 1540 1540 1540
1527 1527 1527 1527 1527 1527 1526 1526 1526 1526 1525 1525 1524 1524 1524 1523 1523 1522 1522 1522 1522 1522 1521 1521 1521 1521 1521 1521 1521 1521 1521 1521 1521 1520 1520 1521 1521 1522 1523 1524 1524 1525 1525 1525 1526 1526 1527 1528 1528 1529 1529 1530 1531 1532 1534 1535 1536 1536 1537 1537 1537 1537 1537 1537 1537 1538 1538 1538 1538 1538 1539 1539 1539 1539
1529 1530 1529 1529 1529 1529 1529 1528 1528 1528 1527 1527 1526 1526 1525 1525 1525 1524 1524 1524 1524 1523 1523 1523 1523 1522 1522 1522 1522 1522 1522 1522 1522 1522 1521 1522 1522 1522 1523 1524 1525 1525 1526 1526 1527 1527 1528 1528 1529 1528 1528 1530 1531 1532 1533 1535 1535 1536 1536 1536 1536 1536 1536 1537 1537 1538 1538 1538 1538 1538 1538 1538 1538 1538
1532 1532 1532 1532 1532 1531 1531 1531 1530 1529 1529 1529 1528 1527 1527 1526 1526 1526 1526 1525 1525 1525 1525 1524 1524 1524 1524 1524 1523 1523 1523 1523 1523 1523 1523 1523 1523 1523 1524 1524 1525 1525 1526 1526 1527 1528 1528 1528 1528 1527 1527 1528 1530 1532 1533 1534 1535 1536 1536 1536 1536 1536 1536 1537 1537 1538 1538 1538 1538 1538 1538 1538 1538 1538
1535 1535 1535 1534 1534 1534 1533 1532 1532 1531 1530 1530 1529 1529 1528 1528 1527 1527 1527 1527 1526 1526 1526 1526 1525 1525 1525 1525 1525 1525 1524 1524 1524 1524 1524 1524 1524 1524 1524 1525 1525 1525 1525 1526 1527 1527 1527 1528 1529 1529 1529 1530 1531 1532 1533 1534 1535 1536 1536 1536 1536 1536 1536 1537 1537 1538 1538 1538 1538 1538 1538 1538 1538 1538
1538 1537 1537 1536 1536 1535 1535 1534 1533 1532 1532 1531 1531 1530 1530 1529 1528 1528 1528 1528 1528 1527 1527 1527 1527 1527 1527 1526 1526 1526 1526 1526 1526 1525 1525 1525 1525 1525 1525 1525 1525 1526 1526 1526 1527 1527 1528 1529 1530 1530 1531 1532 1532 1533 1533 1534 1534 1535 1535 1536 1536 1537 1537 1537 1538 1538 1538 1538 1538 1538 1539 1539 1538 1538
1540 1539 1539 1538 1538 1537 1536 1536 1535 1534 1533 1532 1532 1531 1531 1530 1529 1529 1529 1529 1529 1529 1528 1528 1528 1528 1527 1527 1527 1527 1527 1527 1527 1527 1527 1526 1526 1526 1526 1526 1526 1527 1527 1527 1527 1528 1529 1529 1530 1530 1531 1532 1532 1533 1533 1533 1534 1535 1536 1536 1537 1537 1537 1538 1538 1539 1539 1539 1539 1539 1539 1539 1538 1538
1542 1541 1540 1540 1539 1539 1538 1537 1536 1536 1535 1534 1533 1532 1532 1531 1530 1530 1530 1530 1530 1530 1529 1529 1529 1529 1528 1528 1528 1528 1528 1528 1528 1528 1527 1527 1527 1527 1527 1527 1527 1527 1527 1528 1528 1529 1529 1529 1530 1530 1531 1531 1532 1533 1533 1534 1535 1535 1536 1536 1537 1537 1538 1538 1538 1539 1539 1539 1539 1539 1539 1538 1538 1537
1543 1543 1542 1541 1541 1540 1539 1539 1538 1537 1536 1535 1534 1534 1533 1532 1531 1531 1531 1531 1531 1531 1531 1531 1530 1530 1529 1529 1530 1530 1530 1530 1530 1529 1529 1528 1528 1528 1528 1528 1528 1528 1528 1528 1528 1529 1529 1530 1530 1531 1531 1532 1532 1533 1533 1534 1535 1536 1536 1537 1537 1537 1538 1538 1538 1539 1539 1539 1539 1539 1538 1538 1537 1536
1545 1544 1543 1543 1542 1542 1541 1540 1539 1538 1537 1536 1535 1535 1534 1533 1532 1532 1531 1531 1531 1532 1532 1532 1531 1531 1531 1531 1531 1531 1531 1531 1531 1531 1530 1530 1530 1530 1530 1530 1530 1529 1529 1529 1529 1530 1530 1530 1531 1531 1532 1532 1532 1533 1534 1534 1535 1536 1536 1537 1537 1537 1538 1538 1538 1538 1538 1538 1538 1538 1538 1537 1536 1536
1546 1545 1545 1544 1544 1543 1542 1541 1540 1539 1538 1537 1536 1535 1535 1534 1533 1533 1532 1532 1532 1532 1532 1532 1532 1532 1532 1532 1532 1531 1531 1531 1531 1531 1531 1531 1530 1530 1531 1531 1531 1531 1531 1531 1531 1531 1531 1531 1531 1532 1532 1532 1532 1533 1534 1534 1535 1535 1536 1536 1537 1537 1537 1537 1537 1537 1537 1537 1537 1537 1537 1536 1536 1535